GALAXY 13 (HORIZONS-1)

Last updated on Sat Aug 15 2026 00:02:57 GMT+0000 (Coordinated Universal Time)

1 27954U 03044A 26226.53396472 .00000117 00000+0 00000+0 0 9992 2 27954 1.5646 83.0700 0002120 60.6742 221.4212 1.00272923 47156
UTC large
Height (km)
Speed (km/s)
/
Latitude / Longitude
Inclination (degrees)
Orbital Period (minutes)
Azimuth
Elevation
Range (km)
Doppler Factor

Next 0 passes for location: London (51.5072 / 0.1276)

No passes found over London.
GALAXY 13 (HORIZONS-1)